Location: Moscow
(55.7500°N, 37.5830°E)
Time: 04:41:01
(UTC+03:00)

Kosmos-337 - Pass Details

Date: 05 July 2022
Orbit: 1467 x 1552 km, 74.0° (Epoch: 13 August)

Event Time Altitude Azimuth Distance (km) Brightness Sun altitude
Rises 00:41:03 0° 330° (NNW) 4,737 ? -11.4°
Reaches altitude 10° 00:44:02 10° 331° (NNW) 3,751 ? -11.4°
Maximum altitude 00:53:18 83° 61° (ENE) 1,563 ? -11.3°
Drops below altitude 10° 01:02:25 10° 150° (SSE) 3,700 ? -11.2°
Enters shadow 01:04:04 - 151° (SSE) 4,248 ? -11.2°
